GW3700 Weather Reports


Display with metric or nautical units.
time (UTC)temp
F
wind
direction
speed
MPH
gust
MPH
rain 1hr
in
rain 24hr
in
rain mn
in
humidity
%
barometer
mb
20260510154537 46 350 5.0 8.0 0.00 0.00 0.00 94 1033.8
20260510153028 46 3 4.0 8.0 0.00 0.00 0.00 93 1033.9
20260510151532 47 15 4.0 8.0 0.00 0.00 0.00 94 1033.9
20260510150025 47 339 5.0 7.0 0.00 0.00 0.00 94 1034.1
20260510144534 47 329 4.0 7.0 0.00 0.00 0.00 94 1034.1
20260510143025 47 37 2.0 6.0 0.00 0.00 0.00 93 1034.1
20260510141525 47 28 4.0 6.0 0.00 0.00 0.00 94 1034.2
20260510140014 47 352 4.0 7.0 0.00 0.00 0.00 93 1034.1
20260510134515 48 352 4.0 7.0 0.00 0.00 0.00 94 1034.1
20260510133019 47 12 4.0 9.0 0.00 0.00 0.00 94 1034.2
20260510131517 47 23 5.0 9.0 0.00 0.00 0.00 94 1034.1
20260510130015 48 25 4.0 7.0 0.00 0.00 0.00 93 1034.2
20260510124508 48 18 5.0 8.0 0.00 0.00 0.00 93 1034.2
20260510123006 48 349 4.0 8.0 0.00 0.00 0.00 93 1034.1
20260510121503 49 1 5.0 9.0 0.00 0.00 0.00 93 1034.2
20260510120101 49 29 4.0 8.0 0.00 0.00 0.00 93 1034.3
20260510114558 49 345 4.0 7.0 0.00 0.00 0.00 93 1034.3
20260510113056 49 13 3.0 7.0 0.00 0.00 0.00 93 1034.2
20260510111605 50 4 4.0 7.0 0.00 0.00 0.00 93 1034.2
20260510110051 50 52 3.0 6.0 0.00 0.00 0.00 92 1034.1
20260510104608 50 42 4.0 5.0 0.00 0.00 0.00 92 1034.1
20260510103046 51 55 4.0 6.0 0.00 0.00 0.00 91 1034.0
20260510101543 51 6 4.0 6.0 0.00 0.00 0.00 91 1033.9
20260510100042 51 13 3.0 6.0 0.00 0.00 0.00 91 1033.8
20260510094542 52 28 2.0 4.0 0.00 0.00 0.00 90 1033.7
20260510093038 52 26 2.0 3.0 0.00 0.00 0.00 89 1033.6
20260510091537 53 352 2.0 3.0 0.00 0.00 0.00 89 1033.5
20260510090035 54 20 1.0 2.0 0.00 0.00 0.00 88 1033.4
20260510084533 54 1 1.0 2.0 0.00 0.00 0.00 86 1033.2
20260510083031 55 141 0.0 0.0 0.00 0.00 0.00 86 1033.0
20260510081529 55 141 0.0 0.0 0.00 0.00 0.00 85 1032.7
20260510080032 56 141 0.0 0.0 0.00 0.00 0.00 84 1032.7
20260510074532 56 141 0.0 1.0 0.00 0.00 0.00 84 1032.5
20260510073025 56 151 0.0 1.0 0.00 0.00 0.00 83 1032.4
20260510071525 57 151 0.0 1.0 0.00 0.00 0.00 82 1032.2
20260510070024 58 152 0.0 1.0 0.00 0.00 0.00 80 1032.2
20260510064526 59 165 0.0 1.0 0.00 0.00 0.00 77 1032.1
20260510063023 60 141 0.0 1.0 0.00 0.00 0.00 75 1032.0
20260510061529 61 190 0.0 1.0 0.00 0.00 0.00 75 1032.0
20260510060040 60 189 0.0 4.0 0.00 0.00 0.00 77 1031.9
20260510054520 60 192 0.0 2.0 0.00 0.00 0.00 76 1031.8
20260510053019 60 187 1.0 4.0 0.00 0.00 0.00 76 1031.7
20260510051519 59 211 0.0 0.0 0.00 0.00 0.00 77 1031.7
20260510050017 59 193 0.0 3.0 0.00 0.00 0.00 79 1031.7
20260510044518 59 200 2.0 4.0 0.00 0.00 0.00 77 1031.6
20260510043016 59 192 0.0 4.0 0.00 0.00 0.00 78 1031.6
20260510041517 59 219 2.0 4.0 0.00 0.00 0.00 77 1031.5
20260510040015 59 214 2.0 4.0 0.00 0.00 0.00 77 1031.4
20260510034514 59 203 2.0 5.0 0.00 0.00 0.00 75 1031.5
20260510033013 60 191 1.0 4.0 0.00 0.00 0.00 75 1031.5
20260510031512 60 215 3.0 7.0 0.00 0.00 0.00 74 1031.5
20260510030010 61 262 0.0 4.0 0.00 0.00 0.00 72 1031.4
20260510024511 60 305 2.0 7.0 0.00 0.00 0.00 71 1031.5
20260510023017 60 268 1.0 10.0 0.00 0.00 0.00 74 1031.7
20260510021507 59 309 5.0 9.0 0.00 0.00 0.00 73 1031.8
20260510020005 59 274 3.0 6.0 0.00 0.00 0.00 76 1032.0
20260510014502 59 253 1.0 4.0 0.00 0.00 0.00 76 1032.1
20260510013003 59 240 3.0 9.0 0.00 0.00 0.00 77 1032.3
20260510011627 59 282 3.0 8.0 0.00 0.00 0.00 78 1032.3
20260510010109 59 232 1.0 5.0 0.00 0.00 0.00 79 1032.3
20260510004558 58 226 1.0 6.0 0.00 0.00 0.00 79 1032.4
20260510003103 58 262 2.0 6.0 0.00 0.00 0.00 81 1032.4
20260510001552 58 296 2.0 7.0 0.00 0.00 0.00 86 1032.2
20260510000050 57 321 3.0 9.0 0.00 0.00 0.00 87 1032.2
20260509234547 56 308 3.0 8.0 0.00 0.00 0.00 89 1032.1
20260509233042 55 300 3.0 7.0 0.00 0.00 0.00 90 1032.1
20260509231549 55 306 4.0 7.0 0.00 0.00 0.00 90 1031.9
20260509230041 54 290 3.0 7.0 0.00 0.00 0.00 91 1031.8
20260509224539 54 295 4.0 7.0 0.00 0.00 0.00 91 1031.8
20260509223038 54 288 3.0 6.0 0.00 0.00 0.00 91 1031.6
20260509221538 55 293 4.0 8.0 0.00 0.00 0.00 91 1031.4
20260509220036 54 274 3.0 7.0 0.00 0.00 0.00 92 1031.1
20260509214530 0 0.0 0.0 0.00 0.00 0.00 1031.0
20260509213025 0 0.0 0.0 0.00 0.00 0.00 1030.7
20260509211545 0 0.0 0.0 0.00 0.00 0.00 1030.5
20260509210017 0 0.0 0.0 0.00 0.00 0.00 1030.3
20260509204511 0 0.0 0.0 0.00 0.00 0.00 1030.2
20260509203013 0 0.0 0.0 0.00 0.00 0.00 1030.1
20260509201502 0 0.0 0.0 0.00 0.00 0.00 1029.9
20260509194556 0 0.0 0.0 0.00 0.00 0.00 1029.6
20260509193050 0 0.0 0.0 0.00 0.00 0.00 1029.4
20260509191546 0 0.0 0.0 0.00 0.00 0.00 1029.2
20260509190047 0 0.0 0.0 0.00 0.00 0.00 1029.1
20260509184536 0 0.0 0.0 0.00 0.00 0.00 1029.0
20260509183036 53 304 3.0 7.0 0.00 0.00 0.00 93 1028.8
20260509181530 53 321 3.0 6.0 0.00 0.00 0.00 93 1028.6
20260509180029 53 308 3.0 7.0 0.00 0.00 0.00 93 1028.5
20260509174528 53 316 4.0 8.0 0.00 0.00 0.00 93 1028.4
20260509173027 52 324 5.0 9.0 0.00 0.00 0.00 93 1028.4
20260509171525 52 322 5.0 10.0 0.00 0.00 0.00 93 1028.4
20260509170024 52 311 4.0 8.0 0.00 0.00 0.00 93 1028.4
20260509164521 52 300 4.0 9.0 0.00 0.00 0.00 93 1028.4
20260509163023 53 278 5.0 10.0 0.00 0.00 0.00 92 1028.3
20260509161518 54 304 4.0 8.0 0.00 0.00 0.00 92 1028.2
20260509160015 54 254 4.0 7.0 0.00 0.00 0.00 92 1028.2